Regional Weather Roundup
Issued by NWS

Home | Current Version | Previous Version | Text Only | Print | Product List | Glossary Off
Versions: 1 2 3 4 5 6 7 8 9 10 11 12 13 14 15 16 17 18 19 20 21 22 23 24 25 26 27 28 29 30 31 32 33 34 35 36 37 38 39 40 41 42 43 44 45 46 47 48 49 50

000
ASUS43 KOAX 211002
RWRNE

WEATHER ROUNDUP FOR NEBRASKA
NATIONAL WEATHER SERVICE OMAHA NE
500 AM CDT THU AUG 21 2014

NOTES: SATELLITE DATA IS BEING USED TO AUGMENT CLOUD COVER ABOVE
       12000 FEET.
       "FAIR" INDICATES FEW OR NO CLOUDS BELOW 12,000 FEET WITH NO
       SIGNIFICANT WEATHER AND/OR OBSTRUCTIONS TO VISIBILITY.

  * THESE STATIONS DO NOT REPORT WEATHER SUCH AS RAIN...SNOW OR FOG.

NEZ001>004-019>022-054>056-211100-
NEBRASKA PANHANDLE

CITY           SKY/WX    TMP DP  RH WIND       PRES   REMARKS
SCOTTSBLUFF    PTCLDY    62  50  64 N7        29.94R
ALLIANCE       CLOUDY    64  52  64 W8        29.92R
CHADRON        MOCLDY    59  52  77 W6        29.89R
KIMBALL        PTCLDY    61  54  78 NW7       30.00R
SIDNEY         CLOUDY    66  56  70 W12       29.97R
$$

NEZ057>060-069>072-079>082-211100-
SOUTHWEST NEBRASKA

CITY           SKY/WX    TMP DP  RH WIND       PRES   REMARKS
NORTH PLATTE   PTCLDY    64  61  90 NW7       29.84R
IMPERIAL       PTCLDY    68  60  75 N7        29.88S
LEXINGTON      MOCLDY    70  65  82 SE8       29.78R
MCCOOK         CLEAR     68  63  84 N3        29.81R
OGALLALA       DRIZZLE   66  59  76 SW5       29.90S
$$

NEZ005>010-023>029-035>040-094-211100-
NORTH CENTRAL NEBRASKA

CITY           SKY/WX    TMP DP  RH WIND       PRES   REMARKS
VALENTINE      PTCLDY    67  60  78 NW10      29.79S
AINSWORTH      PTCLDY    67  61  80 W6        29.78S
BROKEN BOW     PTCLDY    68  63  84 NW7       29.81R
O`NEILL        MOCLDY    74  66  76 S7        29.78R
ORD            PTCLDY    70  62  76 SE3       29.76R
THEDFORD       PTCLDY    69  62  77 W6        29.82
$$

NEZ041-046>049-061>064-073>077-083>087-211100-
SOUTH CENTRAL NEBRASKA

CITY           SKY/WX    TMP DP  RH WIND       PRES   REMARKS
GRAND ISLAND   CLOUDY    68  66  93 E6        29.84F THUNDER
AURORA         RAIN      72  67  84 N3        29.88R
HASTINGS       CLOUDY    73  65  75 SE10      29.81R
HEBRON         CLOUDY    74  65  71 CALM      29.82S
HOLDREGE       MOCLDY    71  67  88 CALM      29.79S
KEARNEY *      MOCLDY    68  63  83 NE10      29.81S
$$

NEZ011>018-030>034-042>045-211100-
NORTHEAST NEBRASKA

CITY           SKY/WX    TMP DP  RH WIND       PRES   REMARKS
NORFOLK        LGT RAIN  75  66  73 SW20G26   29.74R
ALBION         CLOUDY    70  62  75 SW13G21   29.76F
BLAIR          CLOUDY    79  68  69 S10       29.78S
COLUMBUS *     CLOUDY    55 N/A N/A SW12      29.79S
FREMONT        CLOUDY    80  66  62 S10       29.78R
TEKAMAH        CLOUDY    78  68  71 S10       29.75S
WAYNE          MOCLDY    75  70  84 SW9       29.73R
$$

NEZ050>053-065>068-078-088>093-211100-
SOUTHEAST NEBRASKA

CITY           SKY/WX    TMP DP  RH WIND       PRES   REMARKS
LINCOLN        CLOUDY    79  66  64 S7        29.80R
OMAHA EPPLEY   CLOUDY    78  68  71 S12       29.77S
BEATRICE       CLOUDY    78  67  69 W6        29.83R
FALLS CITY     PTCLDY    79  69  71 S10       29.81S
NEBRASKA CITY  CLOUDY    77  66  68 S14       29.80S
PLATTSMOUTH    CLOUDY    78  66  65 S12G20    29.79R
$$

NEZ044-045-051>053-067-211100-
OMAHA AREA

CITY           SKY/WX    TMP DP  RH WIND       PRES   REMARKS
OMAHA EPPLEY   CLOUDY    78  68  71 S12       29.77S
BLAIR          CLOUDY    79  68  69 S10       29.78S
FREMONT        CLOUDY    80  66  62 S10       29.78R
MILLARD        CLOUDY    80  69  69 S5        29.78S
OFFUTT AFB     CLOUDY    79  70  74 S6        29.79R
PLATTSMOUTH    CLOUDY    78  66  65 S12G20    29.79R
WAHOO          FAIR      80  64  59 SW12      29.78R
$$



USA.gov is the U.S. government's official web portal to all federal, state and local government web resources and services.